Time,TemperatureF,DewpointF,PressureIn,WindDirection,WindDirectionDegrees,WindSpeedMPH,WindSpeedGustMPH,Humidity,HourlyPrecipIn,Conditions,Clouds,dailyrainin,SoftwareType,DateUTC
2013-03-04 00:01:00,37.0,34.0,30.09,South,173,2.0,7.0,89,0.00,,,0.00,,2013-03-04 00:01:00,
2013-03-04 00:11:00,37.0,34.0,30.09,South,173,2.0,7.0,89,0.00,,,0.00,,2013-03-04 00:11:00,
2013-03-04 00:21:00,37.0,34.0,30.09,SSE,167,3.0,7.0,90,0.00,,,0.00,,2013-03-04 00:21:00,
2013-03-04 00:32:00,37.0,34.0,30.08,SSE,159,5.0,12.0,90,0.00,,,0.00,,2013-03-04 00:32:00,
2013-03-04 00:41:00,37.0,34.0,30.08,SSE,159,5.0,12.0,90,0.00,,,0.00,,2013-03-04 00:41:00,
2013-03-04 00:52:00,38.0,35.0,30.08,South,184,3.0,12.0,89,0.00,,,0.00,,2013-03-04 00:52:00,
2013-03-04 01:01:00,38.0,35.0,30.08,SSE,167,5.0,8.0,88,0.00,,,0.00,,2013-03-04 01:01:00,
2013-03-04 01:11:00,38.0,35.0,30.08,SSE,167,5.0,8.0,88,0.00,,,0.00,,2013-03-04 01:11:00,
2013-03-04 01:21:00,38.0,34.0,30.07,SSE,165,4.0,7.0,87,0.00,,,0.00,,2013-03-04 01:21:00,
2013-03-04 01:31:00,38.0,34.0,30.07,SSE,167,4.0,8.0,86,0.00,,,0.00,,2013-03-04 01:31:00,
2013-03-04 01:42:00,38.0,34.0,30.07,SSE,167,4.0,8.0,86,0.00,,,0.00,,2013-03-04 01:42:00,
2013-03-04 01:52:00,38.0,34.0,30.07,SSE,163,5.0,9.0,85,0.00,,,0.00,,2013-03-04 01:52:00,
2013-03-04 02:01:00,38.0,34.0,30.06,SSE,148,3.0,9.0,85,0.00,,,0.00,,2013-03-04 02:01:00,
2013-03-04 02:11:00,38.0,34.0,30.06,SSE,148,3.0,9.0,85,0.00,,,0.00,,2013-03-04 02:11:00,
2013-03-04 02:22:00,38.0,34.0,30.06,SSE,168,3.0,7.0,84,0.00,,,0.00,,2013-03-04 02:22:00,
2013-03-04 02:31:00,38.0,34.0,30.05,SSE,154,4.0,7.0,85,0.00,,,0.00,,2013-03-04 02:31:00,
2013-03-04 02:41:00,38.0,34.0,30.05,SSE,154,4.0,7.0,85,0.00,,,0.00,,2013-03-04 02:41:00,
2013-03-04 02:52:00,37.0,33.0,30.04,SSE,167,3.0,8.0,85,0.00,,,0.00,,2013-03-04 02:52:00,
2013-03-04 03:01:00,37.0,33.0,30.04,SE,146,1.0,6.0,86,0.00,,,0.00,,2013-03-04 03:01:00,
2013-03-04 03:11:00,37.0,33.0,30.04,SE,146,1.0,6.0,86,0.00,,,0.00,,2013-03-04 03:11:00,
2013-03-04 03:21:00,36.0,33.0,30.04,SE,146,2.0,6.0,87,0.00,,,0.00,,2013-03-04 03:21:00,
2013-03-04 03:31:00,36.0,33.0,30.03,SSE,152,2.0,7.0,88,0.00,,,0.00,,2013-03-04 03:31:00,
2013-03-04 03:41:00,36.0,33.0,30.03,SSE,154,3.0,5.0,88,0.00,,,0.00,,2013-03-04 03:41:00,
2013-03-04 03:52:00,36.0,33.0,30.03,SSE,154,3.0,5.0,88,0.00,,,0.00,,2013-03-04 03:52:00,
2013-03-04 04:01:00,36.0,33.0,30.03,SSE,158,3.0,6.0,88,0.00,,,0.00,,2013-03-04 04:01:00,
2013-03-04 04:11:00,36.0,33.0,30.03,SSE,158,3.0,6.0,88,0.00,,,0.00,,2013-03-04 04:11:00,
2013-03-04 04:21:00,36.0,33.0,30.02,SSE,162,5.0,9.0,89,0.00,,,0.00,,2013-03-04 04:21:00,
2013-03-04 04:31:00,35.0,32.0,30.02,SSE,154,4.0,8.0,88,0.00,,,0.00,,2013-03-04 04:31:00,
2013-03-04 04:41:00,35.0,32.0,30.02,SSE,154,4.0,8.0,88,0.00,,,0.00,,2013-03-04 04:41:00,
2013-03-04 04:52:00,35.0,32.0,30.01,SE,142,6.0,10.0,89,0.00,,,0.00,,2013-03-04 04:52:00,
2013-03-04 05:01:00,35.0,32.0,30.01,SE,144,6.0,12.0,89,0.00,,,0.00,,2013-03-04 05:01:00,
2013-03-04 05:11:00,35.0,32.0,30.01,SE,144,6.0,12.0,89,0.00,,,0.00,,2013-03-04 05:11:00,
2013-03-04 05:22:00,35.0,32.0,30.01,SSE,161,4.0,12.0,89,0.00,,,0.00,,2013-03-04 05:22:00,
2013-03-04 05:31:00,35.0,32.0,30.00,SSE,156,5.0,8.0,89,0.00,,,0.00,,2013-03-04 05:31:00,
2013-03-04 05:42:00,35.0,32.0,30.00,SSE,156,5.0,8.0,89,0.00,,,0.00,,2013-03-04 05:42:00,
2013-03-04 05:52:00,35.0,32.0,30.00,SSW,195,6.0,12.0,89,0.00,,,0.00,,2013-03-04 05:52:00,
2013-03-04 06:01:00,35.0,32.0,29.99,SSE,153,5.0,12.0,89,0.00,,,0.00,,2013-03-04 06:01:00,
2013-03-04 06:11:00,35.0,32.0,29.99,SSE,153,5.0,12.0,89,0.00,,,0.00,,2013-03-04 06:11:00,
2013-03-04 06:21:00,35.0,32.0,29.99,SSE,158,3.0,12.0,89,0.00,,,0.00,,2013-03-04 06:21:00,
2013-03-04 06:31:00,35.0,32.0,29.99,South,169,6.0,12.0,90,0.00,,,0.00,,2013-03-04 06:31:00,
2013-03-04 06:42:00,35.0,32.0,29.99,South,169,6.0,12.0,90,0.00,,,0.00,,2013-03-04 06:42:00,
2013-03-04 06:52:00,35.0,32.0,29.98,SSE,161,2.0,12.0,90,0.00,,,0.00,,2013-03-04 06:52:00,
2013-03-04 07:01:00,35.0,32.0,29.99,South,173,4.0,12.0,90,0.00,,,0.00,,2013-03-04 07:01:00,
2013-03-04 07:11:00,35.0,32.0,29.99,South,173,4.0,12.0,90,0.00,,,0.00,,2013-03-04 07:11:00,
2013-03-04 07:21:00,35.0,32.0,29.98,SSE,157,6.0,9.0,90,0.00,,,0.00,,2013-03-04 07:21:00,
2013-03-04 07:31:00,35.0,32.0,29.98,SSE,166,6.0,12.0,90,0.00,,,0.00,,2013-03-04 07:31:00,
2013-03-04 07:41:00,35.0,32.0,29.98,SSE,166,6.0,12.0,90,0.00,,,0.00,,2013-03-04 07:41:00,
2013-03-04 07:52:00,35.0,32.0,29.98,South,177,5.0,14.0,90,0.00,,,0.00,,2013-03-04 07:52:00,
2013-03-04 08:01:00,36.0,33.0,29.98,SSE,161,7.0,14.0,90,0.00,,,0.00,,2013-03-04 08:01:00,
2013-03-04 08:11:00,36.0,33.0,29.98,SSE,161,7.0,14.0,90,0.00,,,0.00,,2013-03-04 08:11:00,
2013-03-04 08:21:00,36.0,33.0,29.98,SSE,165,8.0,15.0,89,0.00,,,0.00,,2013-03-04 08:21:00,
2013-03-04 08:31:00,37.0,34.0,29.98,South,182,8.0,13.0,89,0.00,,,0.00,,2013-03-04 08:31:00,
2013-03-04 08:41:00,37.0,34.0,29.98,South,182,8.0,13.0,89,0.00,,,0.00,,2013-03-04 08:41:00,
2013-03-04 08:52:00,37.0,34.0,29.97,SSE,165,10.0,16.0,88,0.00,,,0.00,,2013-03-04 08:52:00,
2013-03-04 09:01:00,38.0,34.0,29.97,SSE,166,12.0,20.0,87,0.00,,,0.00,,2013-03-04 09:01:00,
2013-03-04 09:11:00,38.0,34.0,29.97,SSE,166,12.0,20.0,87,0.00,,,0.00,,2013-03-04 09:11:00,
2013-03-04 09:21:00,38.0,34.0,29.96,SSE,165,10.0,20.0,86,0.00,,,0.00,,2013-03-04 09:21:00,
2013-03-04 09:31:00,39.0,35.0,29.96,SSE,156,9.0,16.0,86,0.00,,,0.00,,2013-03-04 09:31:00,
2013-03-04 09:41:00,39.0,35.0,29.96,SSE,156,9.0,16.0,86,0.00,,,0.00,,2013-03-04 09:41:00,
2013-03-04 09:52:00,40.0,36.0,29.96,SE,144,12.0,20.0,84,0.00,,,0.00,,2013-03-04 09:52:00,
2013-03-04 10:01:00,40.0,35.0,29.95,SE,143,10.0,16.0,83,0.00,,,0.00,,2013-03-04 10:01:00,
2013-03-04 10:11:00,40.0,35.0,29.95,SE,143,10.0,16.0,83,0.00,,,0.00,,2013-03-04 10:11:00,
2013-03-04 10:21:00,42.0,37.0,29.94,SE,144,10.0,14.0,81,0.00,,,0.00,,2013-03-04 10:21:00,
2013-03-04 10:31:00,42.0,36.0,29.94,SE,137,12.0,15.0,80,0.00,,,0.00,,2013-03-04 10:31:00,
2013-03-04 10:41:00,42.0,36.0,29.94,SE,137,12.0,15.0,80,0.00,,,0.00,,2013-03-04 10:41:00,
2013-03-04 10:52:00,44.0,37.0,29.94,SSE,153,10.0,15.0,77,0.00,,,0.00,,2013-03-04 10:52:00,
2013-03-04 11:01:00,44.0,37.0,29.93,South,186,8.0,15.0,75,0.00,,,0.00,,2013-03-04 11:01:00,
2013-03-04 11:11:00,44.0,37.0,29.93,South,186,8.0,15.0,75,0.00,,,0.00,,2013-03-04 11:11:00,
2013-03-04 11:21:00,45.0,37.0,29.92,SSE,154,8.0,12.0,73,0.00,,,0.00,,2013-03-04 11:21:00,
2013-03-04 11:31:00,46.0,37.0,29.92,SSE,147,9.0,15.0,72,0.00,,,0.00,,2013-03-04 11:31:00,
2013-03-04 11:41:00,46.0,37.0,29.92,SSE,147,9.0,15.0,72,0.00,,,0.00,,2013-03-04 11:41:00,
2013-03-04 11:52:00,46.0,36.0,29.91,SE,141,9.0,18.0,69,0.00,,,0.00,,2013-03-04 11:52:00,
2013-03-04 12:01:00,46.0,36.0,29.91,SE,145,10.0,16.0,69,0.00,,,0.00,,2013-03-04 12:01:00,
2013-03-04 12:11:00,46.0,36.0,29.91,SE,145,10.0,16.0,69,0.00,,,0.00,,2013-03-04 12:11:00,
2013-03-04 12:22:00,47.0,37.0,29.90,SSE,167,10.0,16.0,67,0.00,,,0.00,,2013-03-04 12:22:00,
2013-03-04 12:32:00,47.0,37.0,29.89,SSW,192,10.0,17.0,67,0.00,,,0.00,,2013-03-04 12:32:00,
2013-03-04 12:42:00,47.0,37.0,29.89,SSW,192,10.0,17.0,67,0.00,,,0.00,,2013-03-04 12:42:00,
2013-03-04 12:52:00,48.0,37.0,29.88,ESE,119,5.0,14.0,65,0.00,,,0.00,,2013-03-04 12:52:00,
2013-03-04 13:02:00,48.0,36.0,29.87,SSE,154,9.0,15.0,64,0.00,,,0.00,,2013-03-04 13:02:00,
2013-03-04 13:11:00,48.0,36.0,29.87,SSE,154,9.0,15.0,64,0.00,,,0.00,,2013-03-04 13:11:00,
2013-03-04 13:21:00,49.0,37.0,29.86,SE,136,7.0,15.0,64,0.00,,,0.00,,2013-03-04 13:21:00,
2013-03-04 13:31:00,50.0,38.0,29.85,SSE,147,7.0,13.0,62,0.00,,,0.00,,2013-03-04 13:31:00,
2013-03-04 13:41:00,50.0,38.0,29.85,SSE,147,7.0,13.0,62,0.00,,,0.00,,2013-03-04 13:41:00,
2013-03-04 13:52:00,49.0,37.0,29.85,SE,131,8.0,14.0,62,0.00,,,0.00,,2013-03-04 13:52:00,
2013-03-04 14:01:00,50.0,38.0,29.84,SE,124,6.0,15.0,63,0.00,,,0.00,,2013-03-04 14:01:00,
2013-03-04 14:11:00,50.0,38.0,29.84,SE,124,6.0,15.0,63,0.00,,,0.00,,2013-03-04 14:11:00,
2013-03-04 14:22:00,50.0,38.0,29.83,ESE,118,7.0,14.0,62,0.00,,,0.00,,2013-03-04 14:22:00,
2013-03-04 14:31:00,51.0,38.0,29.83,SSE,154,6.0,14.0,62,0.00,,,0.00,,2013-03-04 14:31:00,
2013-03-04 14:41:00,51.0,38.0,29.83,SSE,154,6.0,14.0,62,0.00,,,0.00,,2013-03-04 14:41:00,
2013-03-04 14:52:00,51.0,38.0,29.82,South,169,8.0,16.0,60,0.00,,,0.00,,2013-03-04 14:52:00,
2013-03-04 15:01:00,51.0,38.0,29.82,SSE,158,10.0,15.0,61,0.00,,,0.00,,2013-03-04 15:01:00,
2013-03-04 15:11:00,51.0,38.0,29.82,SSE,158,10.0,15.0,61,0.00,,,0.00,,2013-03-04 15:11:00,
2013-03-04 15:21:00,51.0,38.0,29.81,SE,137,8.0,16.0,60,0.00,,,0.00,,2013-03-04 15:21:00,
2013-03-04 15:31:00,51.0,38.0,29.80,SE,137,7.0,14.0,60,0.00,,,0.00,,2013-03-04 15:31:00,
2013-03-04 15:41:00,51.0,38.0,29.80,SE,137,7.0,14.0,60,0.00,,,0.00,,2013-03-04 15:41:00,
2013-03-04 15:52:00,49.0,36.0,29.80,SSE,150,9.0,15.0,60,0.00,,,0.00,,2013-03-04 15:52:00,
2013-03-04 16:02:00,49.0,36.0,29.79,SSE,163,10.0,14.0,60,0.00,,,0.00,,2013-03-04 16:02:00,
2013-03-04 16:11:00,49.0,36.0,29.79,SSE,163,10.0,14.0,60,0.00,,,0.00,,2013-03-04 16:11:00,
2013-03-04 16:21:00,49.0,36.0,29.78,SE,134,10.0,14.0,61,0.00,,,0.00,,2013-03-04 16:21:00,
2013-03-04 16:31:00,48.0,36.0,29.78,SE,144,8.0,18.0,62,0.00,,,0.00,,2013-03-04 16:31:00,
2013-03-04 16:41:00,48.0,36.0,29.78,SE,144,8.0,18.0,62,0.00,,,0.00,,2013-03-04 16:41:00,
2013-03-04 16:52:00,48.0,36.0,29.79,SE,146,9.0,14.0,63,0.00,,,0.00,,2013-03-04 16:52:00,
2013-03-04 17:01:00,47.0,36.0,29.78,SSE,165,6.0,16.0,65,0.00,,,0.00,,2013-03-04 17:01:00,
2013-03-04 17:11:00,47.0,36.0,29.78,SSE,165,6.0,16.0,65,0.00,,,0.00,,2013-03-04 17:11:00,
2013-03-04 17:21:00,46.0,36.0,29.78,South,178,6.0,13.0,67,0.00,,,0.00,,2013-03-04 17:21:00,
2013-03-04 17:31:00,46.0,36.0,29.78,South,169,9.0,13.0,69,0.00,,,0.00,,2013-03-04 17:31:00,
2013-03-04 17:42:00,46.0,36.0,29.78,South,169,9.0,13.0,69,0.00,,,0.00,,2013-03-04 17:42:00,
2013-03-04 17:52:00,45.0,37.0,29.78,ESE,108,7.0,14.0,72,0.00,,,0.00,,2013-03-04 17:52:00,
2013-03-04 18:01:00,44.0,36.0,29.78,SSE,151,8.0,13.0,73,0.00,,,0.00,,2013-03-04 18:01:00,
2013-03-04 18:11:00,44.0,36.0,29.78,SSE,151,8.0,13.0,73,0.00,,,0.00,,2013-03-04 18:11:00,
2013-03-04 18:21:00,43.0,36.0,29.78,South,182,7.0,12.0,76,0.00,,,0.00,,2013-03-04 18:21:00,
2013-03-04 18:31:00,43.0,36.0,29.78,SSE,155,2.0,12.0,76,0.00,,,0.00,,2013-03-04 18:31:00,
2013-03-04 18:42:00,43.0,36.0,29.78,SSE,155,2.0,12.0,76,0.00,,,0.00,,2013-03-04 18:42:00,
2013-03-04 18:52:00,42.0,35.0,29.78,South,173,4.0,12.0,77,0.00,,,0.00,,2013-03-04 18:52:00,
2013-03-04 19:01:00,42.0,36.0,29.79,SE,144,3.0,6.0,78,0.00,,,0.00,,2013-03-04 19:01:00,
2013-03-04 19:11:00,42.0,36.0,29.79,SE,144,3.0,6.0,78,0.00,,,0.00,,2013-03-04 19:11:00,
2013-03-04 19:21:00,42.0,36.0,29.78,SSE,153,3.0,9.0,79,0.00,,,0.00,,2013-03-04 19:21:00,
2013-03-04 19:31:00,41.0,35.0,29.78,SSE,163,7.0,12.0,80,0.00,,,0.00,,2013-03-04 19:31:00,
2013-03-04 19:41:00,41.0,35.0,29.78,SSE,163,7.0,12.0,80,0.00,,,0.00,,2013-03-04 19:41:00,
2013-03-04 19:52:00,41.0,36.0,29.78,SE,146,4.0,8.0,81,0.00,,,0.00,,2013-03-04 19:52:00,
2013-03-04 20:01:00,41.0,36.0,29.78,SE,145,5.0,7.0,82,0.00,,,0.00,,2013-03-04 20:01:00,
2013-03-04 20:11:00,41.0,36.0,29.78,SE,145,5.0,7.0,82,0.00,,,0.00,,2013-03-04 20:11:00,
2013-03-04 20:21:00,40.0,35.0,29.77,SE,144,3.0,9.0,83,0.00,,,0.00,,2013-03-04 20:21:00,
2013-03-04 20:31:00,40.0,35.0,29.77,SE,136,2.0,6.0,83,0.00,,,0.00,,2013-03-04 20:31:00,
2013-03-04 20:41:00,40.0,35.0,29.77,SE,136,2.0,6.0,83,0.00,,,0.00,,2013-03-04 20:41:00,
2013-03-04 20:52:00,40.0,36.0,29.77,SSE,156,4.0,8.0,84,0.00,,,0.00,,2013-03-04 20:52:00,
2013-03-04 21:01:00,40.0,36.0,29.77,SSE,161,3.0,7.0,85,0.00,,,0.00,,2013-03-04 21:01:00,
2013-03-04 21:11:00,40.0,36.0,29.77,SSE,161,3.0,7.0,85,0.00,,,0.00,,2013-03-04 21:11:00,
2013-03-04 21:21:00,39.0,35.0,29.77,SSE,163,3.0,7.0,86,0.00,,,0.00,,2013-03-04 21:21:00,
2013-03-04 21:31:00,39.0,35.0,29.76,South,180,3.0,6.0,86,0.00,,,0.00,,2013-03-04 21:31:00,
2013-03-04 21:42:00,39.0,35.0,29.76,South,180,3.0,6.0,86,0.00,,,0.00,,2013-03-04 21:42:00,
2013-03-04 21:52:00,39.0,35.0,29.76,SSE,152,1.0,3.0,87,0.00,,,0.00,,2013-03-04 21:52:00,
2013-03-04 22:01:00,39.0,35.0,29.76,SSE,151,1.0,5.0,87,0.00,,,0.00,,2013-03-04 22:01:00,
2013-03-04 22:11:00,39.0,35.0,29.76,SSE,151,1.0,5.0,87,0.00,,,0.00,,2013-03-04 22:11:00,
2013-03-04 22:21:00,38.0,35.0,29.75,SSE,155,1.0,3.0,88,0.00,,,0.00,,2013-03-04 22:21:00,
2013-03-04 22:31:00,38.0,35.0,29.75,SSE,154,1.0,3.0,89,0.00,,,0.00,,2013-03-04 22:31:00,
2013-03-04 22:42:00,38.0,35.0,29.75,SSE,154,1.0,3.0,89,0.00,,,0.00,,2013-03-04 22:42:00,
2013-03-04 22:52:00,37.0,34.0,29.75,SSE,154,1.0,2.0,89,0.00,,,0.00,,2013-03-04 22:52:00,
2013-03-04 23:01:00,37.0,34.0,29.75,SSE,154,1.0,3.0,90,0.00,,,0.00,,2013-03-04 23:01:00,
2013-03-04 23:11:00,37.0,34.0,29.75,SSE,154,1.0,3.0,90,0.00,,,0.00,,2013-03-04 23:11:00,
2013-03-04 23:21:00,37.0,34.0,29.74,SSE,149,2.0,3.0,90,0.00,,,0.00,,2013-03-04 23:21:00,
2013-03-04 23:31:00,37.0,35.0,29.74,SE,145,1.0,5.0,91,0.00,,,0.00,,2013-03-04 23:31:00,
2013-03-04 23:41:00,37.0,35.0,29.74,SE,145,1.0,5.0,91,0.00,,,0.00,,2013-03-04 23:41:00,
2013-03-04 23:52:00,37.0,35.0,29.73,SE,142,0.0,3.0,91,0.00,,,0.00,,2013-03-04 23:52:00,